Regional Weather Roundup
Issued by NWS Wakefield, VA

Home | Current Version | Previous Version | Graphics & Text | Print | Product List | Glossary On
Versions: 1 2 3 4 5 6 7 8 9 10 11 12 13 14 15 16 17 18 19 20 21 22 23 24 25 26 27 28 29 30 31 32 33 34 35 36 37 38 39 40 41 42 43 44 45 46 47 48 49 50
000
ASUS41 KAKQ 160115
RWRAKQ

REGIONAL WEATHER ROUNDUP
NATIONAL WEATHER SERVICE WAKEFIELD VA
800 PM EST FRI DEC 15 2017

Note: "fair" indicates few or no clouds below 12,000 feet with no
significant weather and/or obstructions to visibility. * = Denotes
station may not report precipitation (e.g., rain,snow,etc.),
thunder or fog.

VAZ042-051-052>054-056-160200-
NORTHERN VIRGINIA

CITY           SKY/WX    TMP DP  RH WIND       PRES   REMARKS
WASH NATIONAL  PTCLDY    28  24  85 SW5       30.00R
DULLES         PTCLDY    21  20  96 SW6       29.99R
FORT BELVOIR   PTCLDY    25  22  91 CALM      30.00R
QUANTICO       PTCLDY    27  24  89 CALM      30.03R
FREDERICKSBRG* PTCLDY    24  22  91 CALM      30.01R
STAFFORD*      PTCLDY    23  23 100 CALM      30.05R
WARRENTON      PTCLDY    19  15  84 CALM      29.99R
CULPEPER*      PTCLDY    21  19  89 CALM      30.01R
MANASSAS*      MOCLDY    21  19  92 S3        30.01R
LEESBURG*      PTCLDY    23  23 100 CALM      29.99R
WINCHESTER     CLOUDY    28  19  69 CALM      29.95R
FRONT ROYAL*   CLOUDY    28  21  74 MISG      29.95R
LURAY*         PTCLDY    30  19  64 SW7       29.96R
$$

VAZ048-049-060>072-079>083-160200-
CENTRAL AND SOUTH CENTRAL VIRGINIA

CITY           SKY/WX    TMP DP  RH WIND       PRES   REMARKS
RICHMOND       PTCLDY    34  20  56 CALM      30.01R
CHESTERFIELD*  NOT AVBL
PETERSBURG*    CLOUDY    25  19  80 SW5       30.03R
HANOVER        CLEAR     24  20  84 CALM      30.03R
TAPPAHANNOCK*  CLEAR     27  20  75 CALM      30.02R
QUINTON*       FAIR      26  20  79 CALM      30.01R
CHARLOTTSVILLE CLEAR     28  21  75 CALM      29.98R
GORDONSVILLE*  PTCLDY    22  20  95 CALM      29.99R
ORANGE*        PTCLDY    21  19  93 CALM      30.00R
LOUISA*        CLEAR     18  16  92 CALM      30.04R
BUMPASS*       FAIR      23  19  84 CALM      30.00R
FARMVILLE*     CLEAR     28  24  83 CALM      30.00R
CREWE*         FAIR      26  22  85 CALM      30.00R
FORT PICKETT*  NOT AVBL
CHASE CITY*    FAIR      31  24  75 W3        30.02R
CLARKSVILLE*   FAIR      32  27  80 SW5       30.02R
SOUTH HILL*    CLEAR     30  25  79 CALM      30.07R
LAWRENCEVILLE* FAIR      29  22  74 CALM      30.02R
EMPORIA*       CLEAR     30  23  74 MISG      30.04R
$$

VAZ088>098-160200-
SOUTHEAST VIRGINIA

CITY           SKY/WX    TMP DP  RH WIND       PRES   REMARKS
NORFOLK        CLOUDY    36  24  62 VRB5      30.00R
VIRGINIA BEACH CLOUDY    35  22  58 NW9       29.99R
NORFOLK NAVAL  MOCLDY    36  23  59 W14       30.02R
WEST POINT*    CLEAR    N/A N/A N/A CALM      30.04R
SALUDA*        FAIR      29  20  71 W3        30.02R
NEWPORT NEWS   PTCLDY    31  20  63 NW7       30.02R
LANGLEY AFB    PTCLDY    32  21  64 NW8       30.00R
FORT EUSTIS    PTCLDY    33  22  64 NW9       29.99R
WILLIAMSBURG*  CLEAR     30  23  74 CALM      30.03R
HR EXEC AP*    FAIR      34  23  64 NW5       30.02R
FRANKLIN*      CLOUDY    32  23  69 W5        30.03R
US460-WAKEFLD  CLEAR     29  23  78 CALM      30.02R
$$

VAZ020-022-025-037-045-160200-
WEST CENTRAL AND SOUTHWEST VIRGINIA

CITY           SKY/WX    TMP DP  RH WIND       PRES   REMARKS
STAUNTON*      PTCLDY    30  16  54 W8        29.98R
WAYNESBORO*    CLEAR     30  16  56 W5        29.95R
HOT SPRINGS VA CLOUDY    22  14  71 W24G35    29.84R WCI   5
LYNCHBURG      CLEAR     32  18  56 W7        29.99R
DANVILLE       CLEAR     33  24  69 W5        30.04R
SOUTH BOSTON*  FAIR      32  23  69 W3        30.03R
MARTINSVILLE   CLEAR     29  20  68 CALM      30.07R
ROANOKE        PTCLDY    34  17  50 NW21G31   30.03R WCI  22
BLACKSBURG     CLOUDY    29  18  63 W6        30.03R
DUBLIN*        CLOUDY    30  18  61 W9        30.03S
MARION*        CLOUDY    28  16  60 W21G29    30.03R WCI  14
HILLSVILLE*    CLOUDY    27  17  64 NW20G30   29.97R WCI  14
RICHLANDS*     CLOUDY    26  17  68 W7        30.05R
WISE*          CLOUDY    28  21  74 W7        30.08R
ABINGDON*      CLOUDY    30  20  66 W7        30.10R
$$

MDZ021>025-VAZ099-100-160200-
SOUTHERN MARYLAND AND THE DELMARVA PENINSULA

CITY           SKY/WX    TMP DP  RH WIND       PRES   REMARKS
PATUXENT RIVER PTCLDY    28  25  88 W7        30.00R
BAY BRIDGE APT PTCLDY    28  25  86 MISG      29.99R
LEONARDTOWN    PTCLDY    28  27  93 W3        30.01R
DOVER          CLOUDY    26  26 100 W6        29.96R
GEORGETOWN     CLOUDY    28  24  85 W5        29.97R
EASTON         CLOUDY    28  25  86 CALM      30.02R
CAMBRIDGE      CLOUDY    30  28  93 NW5       29.98R
SALISBURY      MIX PCPN  28  27  96 NW6       29.98R
OCEAN CITY     CLOUDY    29  27  92 NW13      29.97R WCI  19
WALLOPS ISLAND CLOUDY    30  27  88 NW8       29.98R
ACCOMACK*      CLOUDY    33  31  90 NW9       29.99R
$$

NCZ012>017-030>032-160200-
NORTH CENTRAL AND EASTERN NORTH CAROLINA

CITY           SKY/WX    TMP DP  RH WIND       PRES   REMARKS
ROANOKE RAPIDS FAIR      34  28  80 W3        30.03R
RALEIGH        PTCLDY    34  26  72 W3        30.04R
ELIZABETH CITY CLOUDY    39  30  70 NW12      30.00R
AHOSKIE*       PTCLDY    36  26  66 CALM      30.03R
EDENTON*       CLOUDY    42  30  62 NW10G17   30.01R
CURRITUCK*     CLOUDY    39  30  68 W8        30.00R
KILL DEVIL HLS CLOUDY    42  31  66 NW9G21    29.97R
MANTEO         CLOUDY    43  31  64 NW13G23   29.98R
CAPE HATTERAS  CLOUDY    48  39  71 NW12G20   29.96R
TARBORO*       NOT AVBL
GOLDSBORO      PTCLDY    42  29  58 NW8       30.02R
WASHINGTON     CLOUDY    43  28  56 NW7       30.02R
GREENVILLE     PTCLDY    43  28  56 NW5       30.05R
NEW BERN       CLOUDY    45  32  60 NW12      30.03R
WILMINGTON     CLOUDY    53  39  59 NW16      30.02R
$$

VAZ048-160200-
ELSEWHERE

CITY           SKY/WX    TMP DP  RH WIND       PRES   REMARKS
HARRISBURG PA  CLOUDY    23  20  88 CALM      29.94R
BALTIMORE      PTCLDY    23  22  96 SW3       29.98R
ANNAPOLIS      CLEAR     26  26 100 W3        29.99R FOG
ANDREWS AFB    PTCLDY    25  23  92 CALM      29.97R
PHILADELPHIA   CLOUDY    26  21  81 W8        29.96R
HENDERSON NC   CLEAR     29  23  77 CALM      30.02R
GREENSBORO     PTCLDY    33  26  75 NW6       30.03R
ROCKY MOUNT    PTCLDY    38  28  67 W3        30.04R
$$

VAZ100-160200-
MARINE

STATION/POSITION TIME  TEMP    WIND        PRES    WAVE   SWELL
                       AIR SEA DIR/SP/G            HT/PER HT/PER
                 (UTC) (F)     (DEG/KT/KT) (MB)    (FT/S) (FT/S)
BRANDYWINE LGT   0036   30     350/  9/ 12 1014.2R
CAPE MAY NJ      0042   28 42  350/  7/ 11 1013.4R
LEWES DE         0036   30 40  310/ 14/ 16 1013.9R
15NM E FENWICK I 2350   34 52  330/ 25/ 29 1012.4    4/ 4   2/ 7
OCEAN-CITY-INLET 0036   30 44  350/ 11/ 14 1014.5R
WACHAPREAGUE VA  0036   31 39  340/  3/ 10 1015.1R
THOMAS POINT MD  0000   28 43  320/  5/  7   N/A
GOOSES REEF MD   0050   30     330/ 10/ 12 1016.2R
COVE POINT MD    0036   30     330/  8/ 13 1016.1R
SOLOMONS ISLAND  0036   30 45  300/  6/  9 1015.5R
BISHOPS HEAD MD  0036   30 35  340/  4/  6 1015.5R
PINEY POINT MD   0036          330/ 12/ 13   N/A
POTOMAC MD       0050   34     310/ 12/ 14 1015.1R
CAMBRIDGE MD     0036   29 38              1015.9R
LEWISETTA VA     0048          280/  8/  9   N/A
RAPPAHANNOCK LGT 0036          310/ 14/ 18 1015.9R
STINGRAY PT      0050   33     330/ 14/ 16 1016.3R
YORK RVR RNG VA  0036   33     330/ 11/ 12 1016.5R
YORKTOWN VA      0036   33 46  290/  9/ 11 1015.8R
JAMESTOWN VA     0050          330/ 10/ 12   N/A
DOMINION TERM VA 0042   37     310/ 18/ 20 1015.9R
KIPTOPEKE VA     0036      44  320/ 18/ 21   N/A
CAPE HENRY VA    0036   36     290/ 17/ 22   N/A
WILLOUBY STN VA  0048          320/ 12/ 14   N/A
S CRANEY ISL VA  0036   35     280/  7/ 12 1015.6R
CAPE HENRY BUOY  0030      53                N/A     4/ 4
1ST LANDING BUOY 0050   36     320/ 17/ 21 1015.5R
CAPE CHARLES BUO 0051      51                N/A     3/ 4
64NM E OF VA BCH 2350   47 59  290/ 25/ 31 1011.7    6/ 5
DUCK PIER NC     0036   42 53  300/ 16/ 22 1014.5R
44100 DUCK FRF   0045      54                N/A     4/ 4
44056 DUCK FRF   0100      54                N/A     3/ 5
OREGON INLET NC  0048          300/ 19/ 24   N/A
HATTERAS NC      0036   49 55  320/ 24/ 29 1014.4R
DIAMOND SHLS NC  0050   58 73  310/ 25/ 33 1013.6R   6/ 6
CAPE LOOKOUT NC  0000          270/ 14/ 17 1014.2R
$$



USA.gov is the U.S. government's official web portal to all federal, state and local government web resources and services.